This demonstration page uses our WeatherBlox Daily Observations layout. Learn more.

Left ArrowRight Arrow

Hourly Observations for May 22, 2022

Temp ( °F °C ) Dew Point ( °F °C ) Humidity (%) Winds ( mph kmh ) Pressure ( in mb ) Visibility ( mi km ) Precip ( " mm )
12:53 am 00:53 Clear 75 23.9 65 18.3 71 71 S 6 9 30.12 1020 10 16 0.00 0.00
1:53 am 01:53 Clear 74 23.3 64 17.8 71 71 Calm 30.12 1020 10 16 0.00 0.00
2:53 am 02:53 Clear 72 22.2 63 17.2 73 73 Calm 30.11 1020 10 16 0.00 0.00
3:53 am 03:53 Clear 71 21.7 63 17.2 76 76 S 5 7 30.12 1020 10 16 0.00 0.00
4:34 am 04:34 Mostly Cloudy 71 21.7 64 17.8 79 79 WSW 3 6 30.14 1021 10 16 0.00 0.00
4:53 am 04:53 Cloudy 71 21.7 64 17.8 79 79 Calm 30.15 1021 10 16 0.00 0.00
5:53 am 05:53 Mostly Cloudy 70 21.1 64 17.8 82 82 SW 5 7 30.16 1022 10 16 0.00 0.00
6:53 am 06:53 Mostly Cloudy 71 21.7 64 17.8 79 79 SSW 5 7 30.17 1022 10 16 0.00 0.00
7:53 am 07:53 Cloudy 71 21.7 65 18.3 81 81 WSW 6 9 30.20 1023 10 16 0.00 0.00
8:53 am 08:53 Sunny 73 22.8 66 18.9 79 79 WSW 3 6 30.20 1023 10 16 0.00 0.00
9:53 am 09:53 Sunny 76 24.4 66 18.9 72 72 WSW 5 7 30.20 1023 10 16 0.00 0.00
10:53 am 10:53 Sunny 78 25.6 65 18.3 64 64 SSW 9 15 30.18 1022 10 16 0.00 0.00
11:53 am 11:53 Partly Cloudy 82 27.8 66 18.9 58 58 SW 8 13 30.17 1022 10 16 0.00 0.00
12:53 pm 12:53 Partly Cloudy 83 28.3 64 17.8 53 53 SSE 9 15 30.17 1022 10 16 0.00 0.00
1:53 pm 13:53 Partly Cloudy 85 29.4 63 17.2 48 48 VRB 6 9 30.16 1022 10 16 0.00 0.00
2:53 pm 14:53 Partly Cloudy 87 30.6 63 17.2 45 45 SSW 12 19 30.14 1021 10 16 0.00 0.00
3:53 pm 15:53 Partly Cloudy 86 30 62 16.7 45 45 SSE 10 17 30.11 1020 10 16 0.00 0.00
4:53 pm 16:53 Mostly Sunny 87 30.6 62 16.7 43 43 S 10 17 30.09 1019 10 16 0.00 0.00
5:53 pm 17:53 Sunny 83 28.3 64 17.8 53 53 SW 9 15 30.09 1019 10 16 0.00 0.00
6:53 pm 18:53 Mostly Cloudy 82 27.8 64 17.8 55 55 SSW 10 17 30.08 1019 10 16 0.00 0.00
7:53 pm 19:53 Partly Cloudy 81 27.2 64 17.8 57 57 SSW 9 15 30.09 1019 10 16 0.00 0.00
8:53 pm 20:53 Clear 79 26.1 61 16.1 54 54 S 3 6 30.11 1020 10 16 0.00 0.00
9:53 pm 21:53 Clear 78 25.6 61 16.1 56 56 SSW 5 7 30.12 1020 10 16 0.00 0.00
10:53 pm 22:53 Mostly Clear 77 25 62 16.7 60 60 SSW 6 9 30.14 1021 10 16 0.00 0.00
11:53 pm 23:53 Mostly Cloudy with Light Rain 73 22.8 65 18.3 76 76 SSW 8 13 30.15 1021 10 16 0.00 0.00

Powered by AerisWeather